Austin Bergstrom International Airport
KAUS : now visible

Airfield :











YOU CAN JOIN US ON...

 
LOGIN :

Register | Disclaimer

   EN    FR    IT 

 









Legend :    VFR   Marginal VFR   IFR   Intensive IFR   Very Intensive IFR
Visi :
Ceiling :
>= 8 km
>= 3000ft
5 to 8 km
1000 to 3000 ft
1500m to 5 km
500 to 1000 ft
800 to 1500m
200 to 500 ft
< 800m
< 200 ft
Symbols :   Thunderstorms  Fog  Heavy snow  Heavy precipitations  Wind > 20 kt






- Airport Elevation : 542 ft
- IATA code : AUS


KAUS - Austin Bergstrom International

CURRENT METAR :
  • 291653Z 01011KT 10SM FEW034 FEW100 SCT250 27/18 A3013 RMK AO2 SLP192 T02670183

EXPIRED METARs :
  • 291553Z 01013KT 10SM FEW055 FEW100 SCT250 27/18 A3011 RMK AO2 SLP185 T02720183
  • 291453Z 01012KT 10SM SCT250 25/19 A3010 RMK AO2 SLP184 T02500189 50008

TAF KAUS
Valid from the 29 at 18:00 until the 31 at 00:00 UTC


291721Z 2918/3024 02011KT P6SM FEW035 SCT250
FM292100 02008KT P6SM FEW250
FM301500 05006KT P6SM FEW250
KZHU FIR / North America



MET'MAP, your aeronautical weather chart ! - Copyright ORBIFLY December 2007 - Disclaimer

ORBIFLY MET'MAP TEAM :

Programming & Development : Alexandra Zaïnal
Concept & original design : Baudouin d'Aumeries
Assistance for programming : Marc-Olivier Méhu
Technical & hardware support : Manuel Goepfert

Contact : metmap@orbifly.com




SOURCES & CREDITS :

   NOAA       Earth
Advisory